When you browse on this site, cookies collect data to enhance your experience and personalize the content and advertising you see.
Visit our Privacy Policy to learn more. By continuing to use the site, you agree to this use of cookies and data.
  • In Schweiz
  • Länderverzeichnis
  • Für 7 Tage
  • Wassertemperatur
  • Satellitenkarten
  • Wetterkarte
  • Widgets
  • user-avatar
    Anmelden

    Stündliche Wetter Yangjinzhuang

    Heute, 18 Juli, Donnerstag

    Zeit Temperatur Niederschläge Wind Luftdruck Luftfeuchtigkeit
    00:00 +26°C° 0 mm 1 m/S 754 mmHg 71%
    01:00 +26°C° 0 mm 1 m/S 754 mmHg 75%
    02:00 +25°C° 0 mm 1 m/S 755 mmHg 74%
    03:00 +25°C° 0 mm 1 m/S 755 mmHg 76%
    04:00 +24°C° 0 mm 1 m/S 754 mmHg 78%
    05:00 +24°C° 0 mm 1 m/S 754 mmHg 80%
    06:00 +26°C° 0 mm 1 m/S 754 mmHg 72%
    07:00 +28°C° 0 mm 1 m/S 754 mmHg 65%
    08:00 +28°C° 0 mm 0 m/S 754 mmHg 57%
    09:00 +32°C° 0 mm 1 m/S 754 mmHg 51%
    10:00 +34°C° 0 mm 1 m/S 754 mmHg 45%
    11:00 +36°C° 0 mm 1 m/S 754 mmHg 39%
    12:00 +37°C° 0 mm 1 m/S 753 mmHg 37%
    13:00 +39°C° 0 mm 2 m/S 753 mmHg 34%
    14:00 +39°C° 0 mm 3 m/S 752 mmHg 32%
    15:00 +40°C° 0 mm 4 m/S 752 mmHg 33%
    16:00 +39°C° 0 mm 5 m/S 752 mmHg 35%
    17:00 +39°C° 0 mm 5 m/S 751 mmHg 36%
    18:00 +35°C° 0 mm 5 m/S 752 mmHg 43%
    19:00 +33°C° 0 mm 4 m/S 752 mmHg 50%
    20:00 +30°C° 0 mm 3 m/S 752 mmHg 57%
    21:00 +29°C° 0 mm 3 m/S 752 mmHg 60%
    22:00 +28°C° 0 mm 3 m/S 753 mmHg 62%
    23:00 +27°C° 0 mm 3 m/S 753 mmHg 65%

    Morgen, 19 Juli, Freitag

    Zeit Temperatur Niederschläge Wind Luftdruck Luftfeuchtigkeit
    00:00 +27°C° 0 mm 3 m/S 753 mmHg 67%
    01:00 +26°C° 0 mm 3 m/S 753 mmHg 68%
    02:00 +26°C° 0 mm 3 m/S 753 mmHg 69%
    03:00 +26°C° 0 mm 2 m/S 753 mmHg 71%
    04:00 +25°C° 0 mm 2 m/S 753 mmHg 72%
    05:00 +25°C° 0 mm 2 m/S 753 mmHg 74%
    06:00 +27°C° 0 mm 2 m/S 753 mmHg 68%
    07:00 +29°C° 0 mm 2 m/S 753 mmHg 63%
    08:00 +30°C° 0 mm 3 m/S 753 mmHg 57%
    09:00 +33°C° 0 mm 3 m/S 753 mmHg 52%
    10:00 +35°C° 0 mm 2 m/S 753 mmHg 46%
    11:00 +37°C° 0 mm 2 m/S 752 mmHg 40%
    12:00 +38°C° 0 mm 3 m/S 752 mmHg 39%
    13:00 +38°C° 0 mm 4 m/S 751 mmHg 38%
    14:00 +38°C° 0 mm 4 m/S 751 mmHg 37%
    15:00 +38°C° 0 mm 4 m/S 750 mmHg 36%
    16:00 +39°C° 0 mm 5 m/S 750 mmHg 36%
    17:00 +39°C° 0 mm 5 m/S 749 mmHg 35%
    18:00 +36°C° 0 mm 4 m/S 749 mmHg 42%
    19:00 +34°C° 0 mm 4 m/S 750 mmHg 49%
    20:00 +30°C° 0 mm 4 m/S 750 mmHg 56%
    21:00 +29°C° 0 mm 3 m/S 750 mmHg 61%
    22:00 +28°C° 0 mm 3 m/S 750 mmHg 66%
    23:00 +27°C° 0 mm 2 m/S 750 mmHg 71%

    übermorgen, 20 Juli, Samstag

    Zeit Temperatur Niederschläge Wind Luftdruck Luftfeuchtigkeit
    00:00 +27°C° 0 mm 2 m/S 750 mmHg 74%
    01:00 +26°C° 0 mm 2 m/S 750 mmHg 76%
    02:00 +26°C° 0 mm 2 m/S 750 mmHg 79%
    03:00 +26°C° 0.1 mm 2 m/S 750 mmHg 79%
    04:00 +26°C° 0.1 mm 2 m/S 750 mmHg 80%
    05:00 +26°C° 0.1 mm 2 m/S 750 mmHg 80%
    06:00 +26°C° 0.5 mm 2 m/S 750 mmHg 82%
    07:00 +26°C° 0.5 mm 2 m/S 751 mmHg 84%
    08:00 +26°C° 0.5 mm 2 m/S 751 mmHg 86%
    09:00 +27°C° 0 mm 1 m/S 751 mmHg 82%
    10:00 +28°C° 0 mm 1 m/S 751 mmHg 79%
    11:00 +29°C° 0 mm 1 m/S 751 mmHg 76%
    12:00 +30°C° 0 mm 2 m/S 750 mmHg 69%
    13:00 +31°C° 0 mm 2 m/S 750 mmHg 63%
    14:00 +34°C° 0 mm 3 m/S 750 mmHg 56%
    15:00 +35°C° 0 mm 3 m/S 749 mmHg 51%
    16:00 +36°C° 0 mm 3 m/S 749 mmHg 45%
    17:00 +37°C° 0 mm 3 m/S 749 mmHg 40%
    18:00 +35°C° 0 mm 3 m/S 749 mmHg 47%
    19:00 +33°C° 0 mm 3 m/S 749 mmHg 53%
    20:00 +30°C° 0 mm 3 m/S 749 mmHg 60%
    21:00 +29°C° 0 mm 3 m/S 749 mmHg 67%
    22:00 +27°C° 0 mm 2 m/S 750 mmHg 74%
    23:00 +26°C° 0 mm 2 m/S 750 mmHg 81%

    21 Juli, Sonntag

    Zeit Temperatur Niederschläge Wind Luftdruck Luftfeuchtigkeit
    00:00 +26°C° 0 mm 2 m/S 750 mmHg 82%
    01:00 +26°C° 0 mm 2 m/S 750 mmHg 84%
    02:00 +25°C° 0 mm 2 m/S 750 mmHg 85%
    03:00 +25°C° 0 mm 2 m/S 750 mmHg 87%
    04:00 +25°C° 0 mm 1 m/S 750 mmHg 89%
    05:00 +25°C° 0 mm 1 m/S 750 mmHg 91%
    06:00 +27°C° 0 mm 1 m/S 750 mmHg 83%
    07:00 +29°C° 0 mm 1 m/S 751 mmHg 75%
    08:00 +31°C° 0 mm 1 m/S 751 mmHg 67%
    09:00 +34°C° 0 mm 2 m/S 751 mmHg 60%
    10:00 +36°C° 0 mm 2 m/S 750 mmHg 52%
    11:00 +38°C° 0 mm 3 m/S 750 mmHg 45%
    12:00 +40°C° 0 mm 3 m/S 750 mmHg 39%
    13:00 +43°C° 0 mm 4 m/S 749 mmHg 33%
    14:00 +45°C° 0 mm 4 m/S 749 mmHg 27%
    15:00 +46°C° 0 mm 5 m/S 748 mmHg 27%
    16:00 +46°C° 0 mm 5 m/S 748 mmHg 27%
    17:00 +45°C° 0 mm 5 m/S 747 mmHg 27%
    18:00 +42°C° 0 mm 5 m/S 748 mmHg 34%
    19:00 +38°C° 0 mm 4 m/S 748 mmHg 42%
    20:00 +35°C° 0 mm 4 m/S 749 mmHg 50%
    21:00 +34°C° 0 mm 3 m/S 749 mmHg 54%
    22:00 +33°C° 0 mm 3 m/S 749 mmHg 58%
    23:00 +31°C° 0 mm 2 m/S 749 mmHg 62%

    22 Juli, Montag

    Zeit Temperatur Niederschläge Wind Luftdruck Luftfeuchtigkeit
    00:00 +31°C° 0 mm 2 m/S 749 mmHg 65%
    01:00 +30°C° 0 mm 2 m/S 749 mmHg 68%
    02:00 +29°C° 0 mm 2 m/S 749 mmHg 71%
    03:00 +29°C° 0 mm 2 m/S 749 mmHg 72%
    04:00 +29°C° 0 mm 2 m/S 749 mmHg 73%
    05:00 +29°C° 0 mm 2 m/S 749 mmHg 74%
    06:00 +30°C° 0 mm 2 m/S 749 mmHg 69%
    07:00 +31°C° 0 mm 2 m/S 749 mmHg 63%
    08:00 +34°C° 0 mm 2 m/S 749 mmHg 58%
    09:00 +36°C° 0 mm 2 m/S 749 mmHg 51%
    10:00 +38°C° 0 mm 2 m/S 749 mmHg 44%
    11:00 +40°C° 0 mm 2 m/S 748 mmHg 38%
    12:00 +42°C° 0 mm 3 m/S 748 mmHg 34%
    13:00 +43°C° 0 mm 5 m/S 748 mmHg 30%
    14:00 +45°C° 0 mm 6 m/S 747 mmHg 27%
    15:00 +41°C° 0.5 mm 6 m/S 747 mmHg 39%
    16:00 +36°C° 0.5 mm 6 m/S 748 mmHg 51%
    17:00 +32°C° 0.5 mm 6 m/S 748 mmHg 64%
    18:00 +30°C° 0.9 mm 5 m/S 748 mmHg 70%
    19:00 +28°C° 0.9 mm 3 m/S 749 mmHg 77%
    20:00 +27°C° 0.9 mm 2 m/S 749 mmHg 83%
    21:00 +27°C° 0.2 mm 2 m/S 749 mmHg 83%
    22:00 +27°C° 0.2 mm 2 m/S 749 mmHg 83%
    23:00 +27°C° 0.2 mm 2 m/S 749 mmHg 83%

    23 Juli, Dienstag

    Zeit Temperatur Niederschläge Wind Luftdruck Luftfeuchtigkeit
    00:00 +26°C° 0.2 mm 1 m/S 749 mmHg 85%
    01:00 +26°C° 0.2 mm 1 m/S 749 mmHg 86%
    02:00 +26°C° 0.2 mm 1 m/S 748 mmHg 88%
    03:00 +26°C° 0.1 mm 1 m/S 748 mmHg 87%
    04:00 +26°C° 0.1 mm 1 m/S 748 mmHg 86%
    05:00 +26°C° 0.1 mm 1 m/S 748 mmHg 85%
    06:00 +26°C° 0.4 mm 2 m/S 748 mmHg 85%
    07:00 +26°C° 0.4 mm 2 m/S 748 mmHg 84%
    08:00 +26°C° 0.4 mm 2 m/S 748 mmHg 84%
    09:00 +27°C° 0.4 mm 2 m/S 748 mmHg 81%
    10:00 +28°C° 0.4 mm 2 m/S 748 mmHg 78%
    11:00 +28°C° 0.4 mm 2 m/S 748 mmHg 75%
    12:00 +30°C° 0.1 mm 2 m/S 748 mmHg 67%
    13:00 +31°C° 0.1 mm 2 m/S 747 mmHg 59%
    14:00 +34°C° 0.1 mm 2 m/S 747 mmHg 51%
    15:00 +34°C° 0.1 mm 2 m/S 747 mmHg 53%
    16:00 +33°C° 0.1 mm 3 m/S 746 mmHg 54%
    17:00 +33°C° 0.1 mm 3 m/S 746 mmHg 56%
    18:00 +31°C° 0 mm 3 m/S 746 mmHg 61%
    19:00 +29°C° 0 mm 3 m/S 747 mmHg 65%
    20:00 +28°C° 0 mm 3 m/S 747 mmHg 70%
    21:00 +27°C° 0 mm 3 m/S 747 mmHg 75%
    22:00 +26°C° 0 mm 2 m/S 747 mmHg 81%
    23:00 +25°C° 0 mm 2 m/S 747 mmHg 87%
    Mehr zeigen